Weather reports worldwide

Advertisment
Mühlacker, Germany (10736): temperature & dewpoint: 05.07.2020 16:00:00 - 11.07.2020 16:00:00 (CEST)Mühlacker, Germany (10736): temperature 5cm & temperature -5cm: 05.07.2020 16:00:00 - 11.07.2020 16:00:00 (CEST)Mühlacker, Germany (10736): temperature -20cm & temperature -100cm: 05.07.2020 16:00:00 - 11.07.2020 16:00:00 (CEST)Mühlacker, Germany (10736): wind speed & gusts: 05.07.2020 16:00:00 - 11.07.2020 16:00:00 (CEST)Mühlacker, Germany (10736): wind direction: 05.07.2020 16:00:00 - 11.07.2020 16:00:00 (CEST)Mühlacker, Germany (10736): reduced air pressure: 05.07.2020 16:00:00 - 11.07.2020 16:00:00 (CEST)Mühlacker, Germany (10736): visibility: 05.07.2020 16:00:00 - 11.07.2020 16:00:00 (CEST)Mühlacker, Germany (10736): sunshine duration: 05.07.2020 16:00:00 - 11.07.2020 16:00:00 (CEST)Mühlacker, Germany (10736): precipitation: 05.07.2020 16:00:00 - 11.07.2020 16:00:00 (CEST)
Date & Time tt [°C] td [°C] tt 5cm [°C] tt -5cm [°C] tt -20cm [°C] tt -100cm [°C] ff [km/h] ff [kn] fx [km/h] fx [kn] dd ppp [hPa] vv [km] sd [min] rr [mm]
11.07.2020 16:00:00 - - - - - - - - - - - - - - -
11.07.2020 15:00:00 21,4 4,9 25,8 31,8 23,4 19,5 14 8 37 20 NW 1022,6 47 54 0,0
11.07.2020 14:00:00 21,3 6,7 25,3 28,6 22,9 19,5 16 8 39 21 NNW 1022,6 70 41 0,0
11.07.2020 13:00:00 20,0 5,8 24,0 29,3 22,5 19,5 16 9 29 15 NW 1022,5 68 48 0,0
11.07.2020 12:00:00 19,7 8,0 23,8 26,9 22,2 19,5 11 6 22 12 NNW 1022,2 70 44 0,0
11.07.2020 11:00:00 18,1 9,2 18,7 25,9 22,0 19,5 10 6 20 11 N 1022,3 70 53 0,0
11.07.2020 10:00:00 17,4 10,5 18,7 22,7 22,0 19,5 7 4 15 8 NNW 1022,1 50 60 0,0
11.07.2020 09:00:00 15,8 11,4 16,0 18,9 22,1 19,5 7 4 11 6 NW 1022,0 70 10 0,0
11.07.2020 08:00:00 14,4 11,9 14,5 17,7 22,3 19,5 6 4 14 8 NNW 1021,6 70 0 0,0
11.07.2020 07:00:00 14,5 13,8 14,6 17,3 22,6 19,5 4 2 6 4 NNW 1020,8 22 0 0,0
11.07.2020 06:00:00 14,2 13,5 14,4 17,3 22,9 19,4 2 1 8 4 ENE 1020,3 13 0 0,0
11.07.2020 05:00:00 14,5 13,2 14,2 17,7 23,1 19,4 6 3 11 6 NW 1019,7 37 0 0,9
11.07.2020 04:00:00 14,8 13,5 14,6 18,7 23,3 19,4 5 3 9 5 NW 1019,4 7 0 1,2
11.07.2020 03:00:00 15,1 14,1 14,9 19,5 23,6 19,4 4 2 9 5 N 1019,4 9 0 1,9
11.07.2020 02:00:00 16,7 13,1 16,3 20,3 23,8 19,4 4 2 6 4 W 1018,8 62 0 0,0
11.07.2020 01:00:00 16,9 13,4 16,1 20,8 24,0 19,4 6 3 8 4 NNW 1018,2 70 0 0,0
11.07.2020 00:00:00 17,7 12,5 17,2 21,4 24,2 19,4 0 0 7 4 N 1017,5 70 0 0,0
10.07.2020 23:00:00 18,4 12,0 17,9 21,8 24,5 19,4 5 3 8 5 NW 1016,9 70 0 0,0
10.07.2020 22:00:00 19,6 11,3 18,8 22,6 24,6 19,4 6 3 19 10 NW 1016,3 70 0 0,0
10.07.2020 21:00:00 21,0 11,7 20,6 23,9 24,8 19,4 10 5 19 10 NW 1016,0 70 0 0,0
10.07.2020 20:00:00 21,6 11,5 21,7 25,2 24,8 19,4 13 7 26 14 W 1015,2 70 1 0,0
10.07.2020 19:00:00 22,4 11,2 23,5 26,8 24,7 19,4 15 8 38 20 W 1014,7 70 13 0,0
10.07.2020 18:00:00 23,9 11,5 26,8 28,6 24,6 19,4 22 12 44 24 WNW 1014,2 55 19 0,0
10.07.2020 17:00:00 23,8 11,4 25,3 28,9 24,4 19,4 23 12 48 26 WNW 1014,0 50 15 0,0
10.07.2020 16:00:00 24,3 11,8 27,4 28,9 24,3 19,4 25 14 46 25 WNW 1013,7 41 9 0,0
10.07.2020 15:00:00 24,2 12,6 26,5 28,9 24,0 19,4 27 15 48 26 W 1013,3 38 3 0,0
10.07.2020 14:00:00 24,4 12,5 26,8 29,9 23,7 19,4 24 13 46 25 WNW 1013,0 41 22 0,0
10.07.2020 13:00:00 24,5 13,1 27,7 30,2 23,3 19,4 21 12 44 24 W 1012,6 64 37 0,0
10.07.2020 12:00:00 25,1 12,8 27,8 29,9 22,9 19,4 18 10 48 26 W 1011,8 45 58 0,0
10.07.2020 11:00:00 27,1 11,9 30,9 29,2 22,6 19,4 23 12 46 25 W 1010,8 27 60 0,0
10.07.2020 10:00:00 26,8 12,1 29,5 26,2 22,5 19,4 18 10 37 20 WSW 1010,8 27 60 0,0
10.07.2020 09:00:00 25,5 12,9 27,2 23,1 22,6 19,4 10 6 17 9 WSW 1010,6 56 60 0,0
10.07.2020 08:00:00 20,1 14,6 18,5 18,6 22,8 19,4 0 0 4 2 N 1010,9 56 60 0,0
10.07.2020 07:00:00 15,1 12,4 13,5 17,7 23,1 19,4 0 0 2 1 N 1011,2 64 51 0,0
10.07.2020 06:00:00 12,4 11,4 11,1 17,7 23,4 19,4 0 0 4 2 N 1011,7 67 0 0,0
10.07.2020 05:00:00 12,5 11,3 11,5 18,2 23,8 19,4 2 1 4 2 ENE 1011,9 63 0 0,0
10.07.2020 04:00:00 13,1 11,6 11,9 18,9 24,1 19,4 0 0 5 3 N 1012,2 70 0 0,0
10.07.2020 03:00:00 14,0 12,0 12,9 19,6 24,5 19,4 3 1 4 2 E 1012,7 70 0 0,0
10.07.2020 02:00:00 14,9 12,3 13,4 20,3 24,8 19,4 0 0 4 2 N 1013,1 70 0 0,0
10.07.2020 01:00:00 15,6 12,2 14,3 21,2 25,2 19,4 0 0 3 2 N 1013,4 70 0 0,0
10.07.2020 00:00:00 16,4 12,5 15,0 22,2 25,5 19,4 0 0 4 2 N 1013,3 70 0 0,0
09.07.2020 23:00:00 18,4 13,0 16,6 23,6 25,8 19,4 0 0 5 3 N 1013,2 70 0 0,0
09.07.2020 22:00:00 20,4 13,2 19,3 25,4 25,9 19,4 4 2 6 4 NE 1012,7 70 9 0,0
09.07.2020 21:00:00 27,7 11,6 25,6 27,9 26,0 19,4 7 4 23 13 W 1011,8 70 56 0,0
09.07.2020 20:00:00 29,2 11,3 30,1 30,6 25,9 19,4 14 7 26 14 W 1011,7 70 54 0,0
09.07.2020 19:00:00 28,7 11,9 29,2 32,4 25,6 19,4 12 7 31 17 WSW 1012,1 70 48 0,0
09.07.2020 18:00:00 29,4 12,0 32,4 34,7 25,2 19,4 19 11 35 19 WSW 1012,4 70 53 0,0
09.07.2020 17:00:00 29,6 11,8 34,1 36,5 24,6 19,4 17 9 40 22 W 1012,8 34 58 0,0
09.07.2020 16:00:00 29,1 11,1 34,7 36,7 24,0 19,4 13 7 38 20 W 1013,3 56 60 0,0
09.07.2020 15:00:00 29,5 11,2 35,1 36,3 23,3 19,4 19 10 35 19 WSW 1013,9 29 60 0,0
09.07.2020 14:00:00 28,6 10,0 33,8 34,9 22,6 19,4 20 11 39 21 W 1014,4 19 60 0,0
09.07.2020 13:00:00 27,4 10,2 32,6 33,3 22,0 19,4 23 12 35 19 W 1015,0 23 60 0,0
09.07.2020 12:00:00 26,0 12,8 30,8 29,7 21,6 19,4 8 4 18 10 S 1015,3 32 55 0,0
09.07.2020 11:00:00 23,1 13,1 25,0 25,1 21,4 19,4 6 3 13 7 SSW 1016,2 70 31 0,0
09.07.2020 10:00:00 21,6 13,0 23,6 23,0 21,3 19,4 3 2 7 4 WSW 1016,7 70 14 0,0
09.07.2020 09:00:00 19,2 13,5 21,1 20,9 21,3 19,4 3 2 5 3 SE 1017,2 69 0 0,0
09.07.2020 08:00:00 17,2 12,9 17,8 19,0 21,4 19,4 3 2 6 4 SE 1017,3 65 22 0,0
09.07.2020 07:00:00 14,4 12,0 14,9 17,6 21,6 19,4 2 1 3 2 W 1017,7 47 0 0,0
09.07.2020 06:00:00 12,6 11,3 12,7 17,1 21,9 19,4 0 0 4 2 N 1017,8 48 0 0,0
09.07.2020 05:00:00 11,8 10,5 11,4 16,8 22,1 19,4 0 0 4 2 N 1017,8 51 0 0,0
09.07.2020 04:00:00 12,2 10,7 11,2 17,4 22,4 19,4 3 2 4 2 NE 1017,7 55 0 0,0
09.07.2020 03:00:00 13,8 11,6 12,7 18,4 22,7 19,4 2 1 8 4 E 1017,9 65 0 0,0
09.07.2020 02:00:00 13,7 11,4 13,1 18,6 22,9 19,4 3 2 7 4 ENE 1018,3 70 0 0,0
09.07.2020 01:00:00 15,1 11,6 14,1 19,6 23,1 19,4 5 3 10 5 NE 1018,5 70 0 0,0
09.07.2020 00:00:00 17,4 11,7 17,1 20,6 23,3 19,4 9 5 16 8 ENE 1018,3 70 0 0,0
08.07.2020 23:00:00 17,9 12,0 17,6 21,3 23,5 19,4 4 2 13 7 E 1018,0 70 0 0,0
08.07.2020 22:00:00 19,0 11,8 18,7 22,1 23,6 19,4 8 4 13 7 NW 1017,4 70 0 0,0
08.07.2020 21:00:00 20,0 12,3 19,9 23,2 23,7 19,4 6 3 13 7 NNW 1016,9 70 0 0,0
08.07.2020 20:00:00 21,3 11,5 21,3 24,2 23,8 19,4 9 5 22 12 NNW 1016,5 70 0 0,0
08.07.2020 19:00:00 22,6 10,9 22,8 25,4 23,7 19,4 7 4 18 10 NNW 1015,9 70 0 0,0
08.07.2020 18:00:00 23,7 10,8 24,9 27,1 23,5 19,4 8 5 24 13 NW 1015,6 70 0 0,0
08.07.2020 17:00:00 24,6 10,0 25,8 27,4 23,3 19,4 11 6 30 16 W 1015,6 70 0 0,0
08.07.2020 16:00:00 24,6 9,3 27,3 28,7 23,0 19,4 16 9 35 19 W 1015,6 56 15 0,0
08.07.2020 15:00:00 23,7 8,8 26,7 28,9 22,6 19,4 16 9 40 21 W 1016,1 70 22 0,0
08.07.2020 14:00:00 24,2 9,1 29,7 27,8 22,1 19,4 14 8 34 18 WSW 1016,0 59 14 0,0
08.07.2020 13:00:00 23,7 8,4 28,3 29,4 21,5 19,4 19 10 36 19 WSW 1016,4 39 50 0,0
08.07.2020 12:00:00 23,4 7,9 28,2 28,0 21,1 19,4 19 10 35 19 WSW 1016,4 31 60 0,0
08.07.2020 11:00:00 21,8 7,0 25,1 24,2 20,9 19,4 19 11 32 17 W 1016,8 62 44 0,0
08.07.2020 10:00:00 20,9 7,1 23,0 21,8 20,8 19,4 14 7 26 14 W 1016,9 70 40 0,0
08.07.2020 09:00:00 18,0 9,6 19,1 18,5 20,9 19,4 2 1 4 2 SE 1017,2 70 16 0,0
08.07.2020 08:00:00 14,4 9,6 14,7 16,5 21,1 19,4 4 2 5 3 ENE 1017,6 70 47 0,0
08.07.2020 07:00:00 10,3 8,5 9,9 15,6 21,4 19,4 0 0 3 2 N 1018,1 51 6 0,0
08.07.2020 06:00:00 9,5 7,9 8,9 15,7 21,7 19,4 0 0 3 2 N 1018,3 40 0 0,0
08.07.2020 05:00:00 8,5 7,0 8,1 15,5 22,0 19,4 0 0 3 2 N 1018,2 31 0 0,0
08.07.2020 04:00:00 8,3 6,7 7,4 15,8 22,4 19,4 0 0 3 1 N 1018,4 39 0 0,0
08.07.2020 03:00:00 8,5 6,8 7,3 16,4 22,8 19,4 0 0 3 1 N 1019,0 49 0 0,0
08.07.2020 02:00:00 9,3 7,1 8,3 17,0 23,1 19,4 2 1 4 2 NE 1019,2 70 0 0,0
08.07.2020 01:00:00 9,8 7,0 8,5 17,8 23,5 19,4 0 0 3 2 N 1019,2 70 0 0,0
08.07.2020 00:00:00 10,9 7,4 9,5 18,9 23,9 19,4 0 0 4 2 N 1019,2 70 0 0,0
07.07.2020 23:00:00 11,8 7,3 10,7 20,1 24,2 19,4 0 0 5 3 N 1019,0 70 0 0,0
07.07.2020 22:00:00 14,1 7,8 12,9 21,9 24,4 19,3 2 1 10 5 ENE 1018,7 70 21 0,0
07.07.2020 21:00:00 19,9 6,2 18,6 24,3 24,4 19,3 6 4 15 8 NW 1017,8 70 60 0,0
07.07.2020 20:00:00 21,7 5,2 23,1 26,9 24,3 19,3 9 5 20 11 WNW 1017,4 70 60 0,0
07.07.2020 19:00:00 22,2 5,1 25,2 29,1 24,1 19,3 9 5 22 12 W 1017,6 60 60 0,0
07.07.2020 18:00:00 22,8 5,6 28,1 30,5 23,7 19,3 5 3 18 10 NNE 1017,7 56 50 0,0
07.07.2020 17:00:00 21,8 5,4 24,9 30,9 23,3 19,3 14 8 26 14 WNW 1018,6 70 43 0,0
07.07.2020 16:00:00 21,6 5,8 24,9 31,5 22,8 19,3 9 5 21 11 WNW 1019,2 70 45 0,0
07.07.2020 15:00:00 20,9 5,5 24,2 29,6 22,4 19,3 11 6 25 13 NW 1019,7 61 29 0,0
07.07.2020 14:00:00 20,2 5,9 24,2 29,4 21,8 19,3 10 5 18 10 NNE 1020,0 67 34 0,0
07.07.2020 13:00:00 20,1 5,9 23,8 27,4 21,3 19,3 8 5 19 10 WNW 1020,3 70 17 0,0
07.07.2020 12:00:00 19,4 6,1 24,2 28,9 20,8 19,3 4 2 13 7 S 1020,6 70 52 0,0
07.07.2020 11:00:00 18,7 6,7 23,4 25,3 20,4 19,3 8 4 14 8 SSW 1021,2 55 60 0,0
07.07.2020 10:00:00 17,1 5,5 20,2 21,3 20,3 19,3 7 4 15 8 E 1021,7 61 60 0,0
07.07.2020 09:00:00 16,4 7,6 18,2 17,4 20,5 19,3 5 3 11 6 E 1021,9 63 60 0,0
07.07.2020 08:00:00 12,0 7,4 10,1 14,1 20,8 19,3 0 0 3 2 N 1022,9 53 60 0,0
07.07.2020 07:00:00 7,9 6,0 6,7 13,6 21,1 19,3 0 0 4 2 N 1023,4 45 52 0,0
07.07.2020 06:00:00 6,0 5,0 4,9 13,6 21,5 19,3 0 0 6 4 N 1023,7 41 0 0,0
07.07.2020 05:00:00 6,1 5,0 4,9 14,1 21,8 19,3 2 1 5 3 E 1023,4 39 0 0,0
07.07.2020 04:00:00 6,8 5,7 5,5 14,8 22,2 19,3 2 1 3 2 N 1023,1 54 0 0,0
07.07.2020 03:00:00 7,3 6,0 5,8 15,4 22,6 19,3 0 0 4 2 N 1023,3 47 0 0,0
07.07.2020 02:00:00 7,9 6,1 6,7 16,1 23,0 19,3 0 0 3 2 N 1023,0 65 0 0,0
07.07.2020 01:00:00 9,2 7,0 7,9 17,1 23,4 19,3 2 1 6 4 WNW 1022,9 70 0 0,0
07.07.2020 00:00:00 10,5 7,5 9,5 18,2 23,7 19,3 3 2 5 3 NE 1022,6 70 0 0,0
06.07.2020 23:00:00 12,5 7,1 10,8 19,2 24,0 19,3 0 0 17 9 N 1022,0 70 0 0,0
06.07.2020 22:00:00 17,0 5,4 15,7 20,8 24,3 19,3 13 7 26 14 W 1020,9 70 7 0,0
06.07.2020 21:00:00 18,3 5,8 18,0 22,2 24,4 19,3 14 7 23 12 W 1020,0 70 8 0,0
06.07.2020 20:00:00 18,8 5,0 18,6 23,7 24,5 19,2 14 7 32 17 W 1019,6 70 10 0,0
06.07.2020 19:00:00 19,1 4,9 19,9 25,3 24,5 19,2 15 8 37 20 W 1019,1 70 14 0,0
06.07.2020 18:00:00 20,7 4,3 24,4 27,3 24,3 19,2 21 12 45 24 WSW 1018,3 34 41 0,0
06.07.2020 17:00:00 20,3 4,7 25,1 28,6 24,0 19,2 23 13 42 23 W 1018,1 20 40 0,0
06.07.2020 16:00:00 20,2 5,2 25,7 29,1 23,7 19,2 26 14 44 24 W 1018,1 41 51 0,0
06.07.2020 15:00:00 19,4 6,0 24,0 29,0 23,3 19,2 23 12 43 23 W 1017,6 42 53 0,0
06.07.2020 14:00:00 19,3 7,3 24,9 28,3 23,0 19,2 29 16 45 25 WNW 1017,4 22 48 0,0
06.07.2020 13:00:00 19,1 8,2 23,4 27,1 22,7 19,2 23 12 43 23 W 1017,1 45 51 0,0
06.07.2020 12:00:00 17,9 7,0 22,0 25,5 22,6 19,2 21 12 51 28 W 1017,1 23 60 0,0
06.07.2020 11:00:00 17,4 7,5 20,5 23,2 22,6 19,2 23 12 42 23 W 1016,6 20 60 0,0
06.07.2020 10:00:00 17,3 9,2 19,6 20,8 22,7 19,2 20 11 42 23 WSW 1016,4 17 60 0,0
06.07.2020 09:00:00 16,3 10,1 17,0 19,1 22,9 19,2 26 14 48 26 W 1016,1 17 60 0,0
06.07.2020 08:00:00 16,1 12,0 15,5 18,8 23,1 19,2 23 12 38 21 W 1015,3 19 48 0,0
06.07.2020 07:00:00 16,6 14,2 16,2 19,5 23,3 19,2 22 12 34 18 W 1014,8 70 0 0,0
06.07.2020 06:00:00 17,6 16,0 16,9 19,9 23,5 19,2 18 10 30 16 W 1013,9 70 0 1,1
06.07.2020 05:00:00 17,8 16,9 17,5 20,6 23,7 19,2 9 5 41 22 WSW 1013,9 2,0 0 1,0
06.07.2020 04:00:00 18,8 16,8 18,2 21,3 23,9 19,2 21 11 37 20 WNW 1013,7 15 0 0,0
06.07.2020 03:00:00 19,2 15,5 19,2 21,5 24,1 19,2 2 1 6 3 ESE 1013,2 70 0 0,0
06.07.2020 02:00:00 18,7 15,6 18,9 21,6 24,4 19,2 3 2 4 2 ENE 1013,6 70 0 0,0
06.07.2020 01:00:00 18,0 15,1 17,7 21,5 24,7 19,2 2 1 5 3 NE 1014,1 70 0 0,0
06.07.2020 00:00:00 17,7 14,2 16,5 22,1 24,9 19,2 4 2 8 5 E 1014,4 70 0 0,0
05.07.2020 23:00:00 22,0 14,5 19,7 23,3 25,1 19,1 5 3 16 8 WSW 1014,1 70 0 0,0
05.07.2020 22:00:00 24,1 14,3 22,7 24,8 25,2 19,1 14 8 30 16 W 1014,1 70 9 0,0
05.07.2020 21:00:00 25,5 15,3 24,6 26,7 25,2 19,1 16 9 29 16 W 1013,6 70 47 0,0
05.07.2020 20:00:00 26,9 15,6 28,0 28,5 25,1 19,1 15 8 31 17 W 1013,2 55 60 0,0
05.07.2020 19:00:00 26,9 16,0 28,9 30,1 24,8 19,1 18 10 34 18 W 1013,5 47 58 0,0
05.07.2020 18:00:00 27,7 16,2 31,4 30,9 24,5 19,1 13 7 34 19 WSW 1014,0 70 47 0,0
05.07.2020 17:00:00 27,4 15,7 32,3 31,0 24,2 19,1 19 10 35 19 W 1014,6 44 45 0,0
05.07.2020 16:00:00 26,1 16,1 29,7 30,2 23,8 19,1 19 10 35 19 W 1015,3 69 26 0,0

tt = temperature
td = dewpoint
tt 5cm = temperature 5cm
tt -5cm = temperature -5cm
tt -20cm = temperature -20cm
tt -100cm = temperature -100cm
ff = wind speed
fx = gusts
dd = wind direction
ppp = reduced air pressure
vv = visibility
sd = sunshine duration
rr = precipitation

Next stations